Change the Weather History Date:

Friday, June 28, 2013

  Actual Average (KBFD) Record (KBFD)
Temperature  
Mean Temperature 62 °F 64 °F  
Max Temperature 66 °F 76 °F 87 °F (1963)
Min Temperature 59 °F 52 °F 36 °F (1961)
Degree Days  
Heating Degree Days 2 1  
Month to date heating degree days 57  
Since 1 June heating degree days 57  
Since 1 July heating degree days 7685  
Cooling Degree Days 0 2  
Month to date cooling degree days 37  
Year to date cooling degree days 47  
Since 1 June cooling degree days 37  
Growing Degree Days 12 (Base 50)    
Moisture  
Dew Point 60 °F    
Average Humidity 95    
Maximum Humidity 100    
Minimum Humidity 78    
Precipitation  
Precipitation 0.00 in 0.16 in 2.31 in (1980)
Month to date precipitation 4.60  
Year to date precipitation 21.34  
Sea Level Pressure  
Sea Level Pressure 29.60 in    
Wind  
Wind Speed 1 mph (WNW)    
Max Wind Speed 5 mph    
Max Gust Speed -    
Visibility 7 miles    
Events Fog , Rain , Thunderstorm    
T = Trace of Precipitation, MM = Missing Value Source: NWS Daily Summary

Daily Weather History Graph

Daily Weather History Graph

Search for Another Location

Airport or City:

Trip Planner

Search our weather history database for the weather conditions in past years. The results will help you decide how hot, cold, wet, or windy it might be!

Date:

Astronomy

Jun. 28, 2013 Rise Set
Actual Time 5:39 AM EDT 8:53 PM EDT
Civil Twilight 5:04 AM EDT 9:28 PM EDT
Nautical Twilight 4:20 AM EDT 10:13 PM EDT
Astronomical Twilight 3:26 AM EDT 11:07 PM EDT
Moon No Moon Rise 11:52 AM EDT (6/28)
Length of Visible Light 16h 23m
Length of Day
15h 14m
Waning Gibbous, 66% of the Moon is Illuminated
Jun 28
Waning Gibbous
Jun 30
Last Quarter
Jul 8
New
Jul 15
First Quarter
Jul 22
Full

Hourly Weather History & Observations

Time (EDT) Temp. Dew Point Humidity Pressure Visibility Wind Dir Wind Speed Gust Speed Precip Events Conditions
12:15 AM 60.8 °F 60.8 °F 100% 29.68 in 7.0 mi NW 3.5 mph - N/A   Overcast
12:35 AM 59.0 °F 59.0 °F 100% 29.68 in 4.0 mi Calm Calm - N/A   Mostly Cloudy
12:55 AM 59.0 °F 59.0 °F 100% 29.68 in 1.8 mi Calm Calm - N/A   Overcast
1:15 AM 59.0 °F 59.0 °F 100% 29.68 in 1.2 mi Calm Calm - N/A   Overcast
1:35 AM 59.0 °F 59.0 °F 100% 29.67 in 7.0 mi Calm Calm - N/A   Overcast
1:55 AM 60.8 °F 60.8 °F 100% 29.66 in 10.0 mi NNW 3.5 mph - N/A   Overcast
2:35 AM 60.8 °F 60.8 °F 100% 29.65 in 0.5 mi Calm Calm - N/A Fog Fog
2:55 AM 60.8 °F 60.8 °F 100% 29.64 in 4.0 mi NNE 3.5 mph - N/A Rain Rain
3:15 AM 60.8 °F 60.8 °F 100% 29.63 in 5.0 mi Calm Calm - N/A   Light Drizzle
3:35 AM 60.8 °F 60.8 °F 100% 29.62 in 0.2 mi Calm Calm - N/A Fog Fog
3:55 AM 60.8 °F 60.8 °F 100% 29.61 in 0.8 mi Calm Calm - N/A   Overcast
4:15 AM 60.8 °F 60.8 °F 100% 29.62 in 4.0 mi Calm Calm - N/A   Overcast
4:35 AM 60.8 °F 60.8 °F 100% 29.62 in 5.0 mi Calm Calm - N/A   Overcast
4:55 AM 59.0 °F 59.0 °F 100% 29.62 in 7.0 mi Calm Calm - N/A   Overcast
5:15 AM 59.0 °F 59.0 °F 100% 29.62 in 2.5 mi Calm Calm - N/A   Overcast
5:35 AM 59.0 °F 59.0 °F 100% 29.62 in 2.5 mi Calm Calm - N/A Rain Light Rain
5:55 AM 59.0 °F 59.0 °F 100% 29.63 in 2.5 mi Calm Calm - N/A Rain Rain
6:15 AM 59.0 °F 59.0 °F 100% 29.63 in 4.0 mi Calm Calm - N/A   Light Drizzle
6:35 AM 59.0 °F 59.0 °F 100% 29.63 in 5.0 mi Calm Calm - N/A Rain Rain
6:55 AM 59.0 °F 59.0 °F 100% 29.63 in 2.5 mi Calm Calm - N/A   Drizzle
7:15 AM 60.8 °F 60.8 °F 100% 29.64 in 1.2 mi Calm Calm - N/A Rain Light Rain
7:35 AM 60.8 °F 60.8 °F 100% 29.63 in 0.2 mi Calm Calm - N/A Fog Fog
7:55 AM 60.8 °F 60.8 °F 100% 29.63 in 1.5 mi Calm Calm - N/A   Overcast
8:55 AM 60.8 °F 60.8 °F 100% 29.61 in 10.0 mi Calm Calm - N/A   Overcast
9:15 AM 62.6 °F 60.8 °F 94% 29.61 in 10.0 mi Calm Calm - N/A   Overcast
9:35 AM 62.6 °F 60.8 °F 94% 29.61 in 10.0 mi Calm Calm - N/A   Overcast
9:55 AM 62.6 °F 60.8 °F 94% 29.61 in 10.0 mi Calm Calm - N/A   Overcast
10:15 AM 62.6 °F 60.8 °F 94% 29.61 in 10.0 mi Calm Calm - N/A Thunderstorm Overcast
10:35 AM 62.6 °F 60.8 °F 94% 29.60 in 10.0 mi Calm Calm - N/A   Overcast
10:55 AM 62.6 °F 60.8 °F 94% 29.59 in 10.0 mi Calm Calm - N/A   Overcast
11:15 AM 64.4 °F 60.8 °F 88% 29.59 in 10.0 mi Calm Calm - N/A   Overcast
11:35 AM 64.4 °F 60.8 °F 88% 29.59 in 10.0 mi Calm Calm - N/A   Overcast
11:55 AM 62.6 °F 62.6 °F 100% 29.59 in 7.0 mi Calm Calm - N/A Rain Light Rain
12:15 PM 62.6 °F 62.6 °F 100% 29.59 in 7.0 mi WNW 3.5 mph - N/A Rain , Thunderstorm Heavy Thunderstorms and Rain
12:35 PM 62.6 °F 60.8 °F 94% 29.59 in 7.0 mi Calm Calm - N/A Rain , Thunderstorm Light Thunderstorms and Rain
12:55 PM 62.6 °F 62.6 °F 100% 29.58 in 10.0 mi Calm Calm - N/A Thunderstorm Thunderstorm
1:15 PM 64.4 °F 62.6 °F 94% 29.58 in 10.0 mi Calm Calm - N/A Rain , Thunderstorm Light Thunderstorms and Rain
1:35 PM 64.4 °F 62.6 °F 94% 29.59 in 10.0 mi WSW 3.5 mph - N/A Rain , Thunderstorm Light Thunderstorms and Rain
1:55 PM 62.6 °F 60.8 °F 94% 29.58 in 7.0 mi Calm Calm - N/A Rain , Thunderstorm Rain
2:15 PM 62.6 °F 60.8 °F 94% 29.59 in 4.0 mi Calm Calm - N/A Rain , Thunderstorm Heavy Thunderstorms and Rain
2:35 PM 62.6 °F 59.0 °F 88% 29.56 in 4.0 mi Calm Calm - N/A Rain , Thunderstorm Rain
2:55 PM 60.8 °F 60.8 °F 100% 29.53 in 10.0 mi East 3.5 mph - N/A Rain Light Rain
3:15 PM 60.8 °F 60.8 °F 100% 29.54 in 7.0 mi Calm Calm - N/A   Mostly Cloudy
3:35 PM 62.6 °F 60.8 °F 94% 29.55 in 10.0 mi SW 4.6 mph - N/A Thunderstorm Scattered Clouds
3:55 PM 62.6 °F 60.8 °F 94% 29.54 in 10.0 mi WSW 3.5 mph - N/A   Mostly Cloudy
4:15 PM 64.4 °F 60.8 °F 88% 29.55 in 10.0 mi West 3.5 mph - N/A   Mostly Cloudy
4:35 PM 64.4 °F 60.8 °F 88% 29.56 in 10.0 mi Calm Calm - N/A   Overcast
4:55 PM 64.4 °F 60.8 °F 88% 29.56 in 10.0 mi WSW 3.5 mph - N/A   Overcast
5:15 PM 64.4 °F 59.0 °F 83% 29.56 in 10.0 mi Calm Calm - N/A   Overcast
5:35 PM 66.2 °F 60.8 °F 83% 29.56 in 10.0 mi Calm Calm - N/A   Mostly Cloudy
5:55 PM 66.2 °F 59.0 °F 78% 29.56 in 10.0 mi West 3.5 mph - N/A   Mostly Cloudy
6:15 PM 66.2 °F 59.0 °F 78% 29.56 in 10.0 mi NW 4.6 mph - N/A   Overcast
6:35 PM 64.4 °F 59.0 °F 83% 29.55 in 10.0 mi NW 4.6 mph - N/A   Mostly Cloudy
6:55 PM 64.4 °F 60.8 °F 88% 29.56 in 10.0 mi Calm Calm - N/A   Scattered Clouds
7:15 PM 62.6 °F 59.0 °F 88% 29.56 in 10.0 mi Calm Calm - N/A Rain Light Rain
7:35 PM 64.4 °F 60.8 °F 88% 29.56 in 10.0 mi WNW 3.5 mph - N/A   Scattered Clouds
7:55 PM 64.4 °F 59.0 °F 83% 29.56 in 10.0 mi Calm Calm - N/A   Scattered Clouds
8:15 PM 62.6 °F 59.0 °F 88% 29.56 in 10.0 mi Calm Calm - N/A   Scattered Clouds
8:35 PM 60.8 °F 59.0 °F 94% 29.56 in 10.0 mi Calm Calm - N/A   Clear
8:55 PM 60.8 °F 59.0 °F 94% 29.56 in 10.0 mi Calm Calm - N/A   Clear
9:15 PM 60.8 °F 59.0 °F 94% 29.57 in 10.0 mi Calm Calm - N/A   Clear
9:35 PM 59.0 °F 59.0 °F 100% 29.58 in 10.0 mi Calm Calm - N/A   Mostly Cloudy
9:55 PM 59.0 °F 59.0 °F 100% 29.59 in 10.0 mi Calm Calm - N/A   Mostly Cloudy
10:15 PM 60.8 °F 59.0 °F 94% 29.59 in 10.0 mi Calm Calm - N/A   Scattered Clouds
10:35 PM 59.0 °F 59.0 °F 100% 29.59 in 10.0 mi Calm Calm - N/A   Mostly Cloudy
10:55 PM 59.0 °F 59.0 °F 100% 29.58 in 2.5 mi Calm Calm - N/A   Mostly Cloudy
11:15 PM 59.0 °F 59.0 °F 100% 29.58 in 3.0 mi Calm Calm - N/A   Scattered Clouds
11:35 PM 59.0 °F 59.0 °F 100% 29.57 in 10.0 mi Calm Calm - N/A   Clear
11:55 PM 59.0 °F 59.0 °F 100% 29.57 in 10.0 mi Calm Calm - N/A   Clear